Regional Weather Roundup
Issued by NWS

Home | Current Version | Previous Version | Graphics & Text | Print | Product List | Glossary Off
Versions: 1 2 3 4 5 6 7 8 9 10 11 12 13 14 15 16 17 18 19 20 21 22 23 24 25 26 27 28 29 30 31 32 33 34 35 36 37 38 39 40 41 42 43 44 45 46 47 48 49 50

000
ASUS43 KTOP 262208
RWRKS

WEATHER ROUNDUP FOR KANSAS
NATIONAL WEATHER SERVICE GOODLAND KS
500 PM CDT MON SEP 26 2016

NOTE:  "FAIR" INDICATES FEW OR NO CLOUDS BELOW 12,000 FEET WITH NO
SIGNIFICANT WEATHER AND/OR OBSTRUCTIONS TO VISIBILITY.

KSZ001>006-013>018-027>032-041>047-262300-
NORTHWEST KANSAS

CITY           SKY/WX    TMP DP  RH WIND       PRES   REMARKS
GOODLAND       SUNNY     79  37  22 NW13      30.23F
HAYS           SUNNY     79  34  19 NW6       30.18F
HILL CITY      SUNNY     80  37  21 W5        30.18F
RUSSELL        SUNNY     77  37  23 W12       30.18F
$$

KSZ061>065-074>080-084>089-262300-
SOUTHWEST KANSAS

CITY           SKY/WX    TMP DP  RH WIND       PRES   REMARKS
DODGE CITY     SUNNY     79  30  16 VRB3      30.22F
ELKHART          N/A     77  35  21 S3          N/A
GARDEN CITY    SUNNY     78  31  17 VRB7      30.22F
GREAT BEND     SUNNY     75  36  23 SW7       30.19F
LIBERAL        SUNNY     77  34  20 E3        30.26F
PRATT          SUNNY     73  32  22 CALM      30.22F
$$

KSZ066>073-081>083-090>101-262300-
SOUTHEAST KANSAS

CITY           SKY/WX    TMP DP  RH WIND       PRES   REMARKS
CHANUTE        SUNNY     74  40  29 N9        30.19F
COFFEYVILLE    SUNNY     75  41  29 N7        30.19F
HUTCHINSON     SUNNY     76  37  24 CALM      30.21F
MEDICINE LODGE   N/A     73  37  27 VRB5      30.22F
NEWTON         SUNNY    N/A N/A N/A NW5       30.22F
PARSONS        SUNNY     74  41  30 N7        30.20F
WICHITA INTL   MOSUNNY   75  41  29 VRB7      30.21F
WICHITA JABRA  SUNNY     73  42  32 CALM      30.21F
WICHITA MCCONL SUNNY     73  42  32 W5        30.21F
WINFIELD       SUNNY     73  40  30 CALM      30.22F
$$

KSZ007>012-019>026-033>040-048>060-102>105-262300-
NORTHEAST KANSAS

CITY           SKY/WX    TMP DP  RH WIND       PRES   REMARKS
CONCORDIA      SUNNY     75  38  26 W9        30.18F
EMPORIA        SUNNY     73  40  30 N7        30.19F
LAWRENCE       SUNNY     73  43  33 W9        30.16F
MANHATTAN      SUNNY     76  43  30 W7        30.17F
MARYSVILLE     SUNNY     75  41  29 W9G16     30.15F
OLATHE IND     SUNNY     71  41  33 W12       30.17F
OLATHE EXE     SUNNY     71  40  32 NW10G16   30.17F
SALINA         SUNNY     77  37  23 VRB3      30.19F
TOPEKA BILLARD SUNNY     74  42  31 W5        30.16F
TOPEKA FORBES  SUNNY     75  44  33 W9        30.17F
$$




USA.gov is the U.S. government's official web portal to all federal, state and local government web resources and services.